Wind_Speed
13 12 12 12 12 11 11 10 10 9 7 7 6 6 7 6 6 5 4 5 4 3 3 3 3 3 3 2 2 3 4 4 5 6 8 9 10 11 12 13 13 14 14 15
12 12 11 11 11 10 9 9 9 8 7 6 5 5 6 6 6 5 4 4 3 3 3 3 3 3 3 2 2 3 3 4 5 5 6 7 8 9 10 11 12 13 14 15
11 10 10 10 9 9 9 8 7 8 8 5 5 5 6 6 5 4 3 3 3 3 3 3 3 3 2 3 4 4 4 4 5 5 6 6 8 9 10 11 12 13 13 14
11 10 9 9 8 8 8 7 7 7 6 5 5 5 5 6 4 3 3 3 3 3 3 4 3 3 3 4 4 5 5 5 5 6 6 7 8 9 9 10 11 11 12 13
11 9 10 9 8 7 7 6 6 6 5 4 5 5 4 4 3 2 3 2 2 2 4 3 3 3 3 4 4 5 6 6 6 6 6 7 8 8 9 10 10 11 12 12
11 10 9 9 8 7 7 6 6 5 5 4 5 5 3 3 3 2 2 1 1 2 3 3 3 3 3 4 4 5 6 6 6 6 7 7 8 8 9 10 11 11 11 12
12 11 9 9 8 8 7 7 7 5 5 5 5 4 3 3 2 2 2 1 1 2 2 2 2 3 3 4 5 5 6 7 7 7 7 8 8 9 10 10 11 11 12 13
13 11 9 9 9 8 8 8 7 7 6 6 5 4 3 3 2 2 2 2 2 2 1 1 2 3 4 5 5 6 7 8 8 8 8 8 9 9 10 11 11 12 13 13
14 12 11 10 10 10 9 8 8 8 7 6 5 3 3 4 3 3 3 3 2 2 1 1 2 2 3 4 5 6 7 8 8 8 9 9 10 10 11 11 12 13 14 14
15 13 13 12 11 11 10 9 9 8 9 7 6 5 5 5 5 4 5 4 3 3 2 1 1 2 3 4 5 6 7 8 9 9 10 10 11 11 11 12 13 14 15 15
16 15 14 14 12 11 11 10 10 10 10 10 8 6 7 6 6 6 6 5 5 4 3 2 2 2 3 4 5 6 7 8 9 9 10 10 11 12 12 13 14 15 15 16
17 16 16 16 14 14 13 12 12 12 11 10 9 7 8 7 7 7 7 7 6 5 4 4 3 3 3 4 5 7 8 8 9 9 10 10 11 12 13 14 15 15 16 17
18 17 16 16 16 15 15 13 13 13 12 11 10 8 8 8 8 8 8 8 7 6 6 5 4 4 4 5 6 7 8 8 9 10 10 10 11 12 13 14 15 16 17 18
19 18 17 16 15 15 14 14 14 15 13 12 11 10 9 9 10 10 9 9 8 8 7 6 6 5 5 5 6 7 8 9 9 10 10 11 12 13 14 15 16 17 18 19
19 18 17 16 15 16 15 15 16 16 15 15 13 12 11 11 11 10 10 11 10 9 8 8 7 7 6 6 7 7 8 9 10 10 11 11 12 13 14 16 17 18 19 20
19 19 18 17 17 18 18 17 17 17 17 15 14 12 11 11 11 12 12 12 12 11 10 10 9 8 8 8 8 8 9 10 10 11 12 12 13 14 16 17 18 19 20 21
19 19 19 18 18 19 19 18 19 18 17 15 14 12 13 12 12 12 13 13 13 13 12 11 11 10 9 9 10 10 10 11 11 12 13 14 15 16 17 18 19 20 21 22
21 21 21 20 20 22 18 19 19 19 18 16 14 13 13 13 13 13 13 13 14 13 12 12 12 11 11 11 11 11 11 12 13 14 15 15 16 17 19 20 21 21 22 23
20 21 21 21 21 20 18 20 20 19 18 16 15 14 14 14 14 13 13 13 13 13 13 13 13 12 12 12 12 13 13 13 14 15 16 17 18 19 20 21 22 23 23 24
20 20 21 21 21 19 17 19 19 19 17 16 16 16 16 16 16 15 15 14 14 14 14 14 14 14 14 14 14 14 15 15 16 17 18 19 19 20 21 22 23 24 24 25
21 21 21 20 20 18 16 17 18 18 15 16 17 17 18 18 19 18 17 16 15 15 15 15 16 16 16 15 15 16 16 16 17 18 19 20 21 22 23 24 24 25 25 26
21 22 21 20 19 16 16 17 18 17 18 18 18 18 19 20 20 19 18 18 17 17 17 17 17 17 17 17 17 17 17 18 19 20 21 22 23 24 25 25 26 26 26 27
22 21 20 20 19 17 17 18 18 18 18 18 19 19 20 20 20 20 20 19 19 19 18 18 18 19 19 18 19 19 19 20 20 21 22 23 24 25 26 27 27 28 28 28
21 20 20 19 18 18 18 18 18 19 19 19 20 21 20 21 21 21 20 20 19 20 20 20 20 20 20 20 20 21 21 22 22 23 24 25 25 26 27 28 28 29 29 29
19 19 19 19 19 19 19 19 19 19 19 20 20 20 21 20 20 20 20 20 20 21 21 21 21 21 21 21 21 22 22 23 24 25 25 26 27 27 28 29 29 30 31 31
20 20 21 20 20 20 21 21 21 20 20 20 22 22 21 21 21 22 21 20 21 21 21 21 21 21 22 22 22 23 23 24 25 26 27 27 28 29 30 31 31 32 32 33
Wind_Direction
289 291 293 294 298 303 310 315 321 318 310 317 320 318 325 337 339 350 344 336 341 359 359 1 7 351 352 344 311 300 300 289 291 284 282 284 283 284 284 283 285 285 283 281
282 283 284 288 295 303 312 317 320 319 321 314 314 317 318 322 326 338 339 337 2 21 18 9 359 360 4 8 355 348 332 318 316 302 293 292 295 295 294 292 291 291 290 287
274 276 277 281 291 302 311 317 319 317 323 324 311 319 322 323 319 315 324 340 357 5 7 356 346 359 27 27 16 8 1 342 330 321 314 309 306 304 302 300 298 297 296 294
264 269 271 275 286 298 303 310 312 311 316 320 315 319 322 329 328 321 321 330 349 358 358 355 0 20 19 18 15 9 1 351 340 331 325 320 318 317 316 313 309 303 300 298
257 261 264 267 276 288 295 293 303 311 310 312 311 314 328 338 342 335 325 325 337 354 355 8 23 26 24 23 17 10 3 360 353 346 340 334 330 329 327 323 318 312 308 304
246 253 257 262 267 276 286 286 289 298 303 314 309 306 312 321 314 302 301 315 316 339 357 14 26 36 32 27 24 16 11 8 1 354 348 342 338 336 333 330 327 323 318 313
239 243 248 255 260 269 277 281 288 294 291 307 312 307 306 311 294 271 272 284 294 318 349 7 35 38 37 35 31 20 16 11 5 359 350 346 344 343 341 339 337 333 328 324
233 236 247 253 256 265 268 275 289 296 293 291 294 298 307 326 295 262 259 264 282 300 333 39 40 29 35 33 27 21 18 13 8 2 356 353 351 349 347 345 343 339 336 331
230 231 239 250 255 258 261 269 281 290 288 289 290 289 287 302 296 272 268 270 280 290 299 11 18 13 25 25 21 19 16 11 7 4 0 358 356 351 350 349 346 343 340 337
228 228 231 242 253 254 255 262 272 280 285 287 282 281 287 290 289 280 277 284 292 291 280 303 336 350 13 16 14 12 8 4 3 4 3 2 359 356 352 349 347 346 344 341
228 231 230 238 246 251 252 260 267 276 279 285 281 273 279 283 285 280 275 280 288 283 279 282 298 322 348 358 1 2 2 1 360 0 2 1 360 357 355 353 351 348 345 343
232 233 232 237 244 247 253 259 263 269 277 281 279 273 277 279 277 274 270 271 274 276 277 273 278 293 315 334 346 352 356 357 357 357 357 356 355 355 353 351 350 347 346 344
239 240 240 240 247 250 256 259 262 266 273 275 276 280 277 274 270 268 265 266 271 271 273 269 268 280 301 321 333 340 346 351 353 352 351 350 349 348 347 345 345 344 342 340
244 245 245 246 252 256 259 259 260 263 269 274 278 282 277 270 269 266 264 264 269 271 269 266 267 276 293 310 322 331 338 342 345 346 345 343 342 341 341 341 340 339 338 337
242 243 244 247 252 255 257 258 259 259 265 272 275 278 272 268 269 265 264 264 266 269 269 266 266 274 286 300 310 320 328 334 337 339 338 337 336 336 336 337 337 336 335 335
240 243 244 246 253 257 256 256 257 258 261 265 268 270 267 265 266 265 264 266 265 266 268 265 264 272 282 293 302 308 316 323 327 330 331 331 330 331 331 332 333 334 334 334
244 244 247 250 255 260 260 260 261 260 259 261 265 265 262 263 263 263 264 263 264 266 266 263 263 270 280 289 295 301 306 311 317 321 323 324 325 326 327 328 330 331 332 333
244 247 248 254 259 261 262 258 261 263 260 261 261 261 261 262 261 263 263 265 265 266 265 263 265 270 278 286 291 294 299 305 310 314 316 319 321 323 325 326 327 328 329 330
245 248 252 257 262 265 262 260 262 262 259 259 259 259 261 260 264 266 267 268 266 266 266 266 268 271 278 284 289 292 295 301 305 309 312 315 317 320 323 325 325 325 326 327
244 246 250 257 261 264 264 259 259 260 258 257 259 259 260 260 262 266 268 268 267 268 268 269 270 273 277 283 288 291 294 298 302 305 308 311 313 316 319 321 322 322 323 324
244 247 251 256 262 265 264 259 257 258 259 255 256 257 256 259 261 264 263 264 268 270 271 272 273 275 278 283 287 291 293 296 299 303 306 308 310 313 315 317 318 319 321 322
248 249 252 257 262 262 258 258 257 259 256 257 257 255 257 260 262 262 261 263 266 268 270 272 274 276 279 282 286 289 292 294 297 300 304 306 308 310 312 314 316 317 319 319
247 250 254 256 256 255 257 259 256 257 256 256 254 256 259 262 260 260 262 262 266 267 268 269 272 275 278 281 283 287 290 293 296 299 302 305 307 308 310 312 314 315 317 318
247 248 250 250 249 252 257 256 256 256 254 254 255 257 259 260 260 261 262 263 265 267 267 269 271 274 277 280 283 286 289 291 293 297 300 303 305 307 309 311 312 313 315 316
246 246 248 248 249 252 254 254 255 256 257 258 257 256 258 258 259 263 264 265 266 268 269 269 270 273 277 281 284 287 289 290 292 296 299 301 304 306 308 310 310 311 312 313
245 248 250 250 249 251 252 253 254 257 257 257 256 255 255 256 259 261 262 265 268 270 271 272 274 276 278 281 284 286 288 290 292 295 297 300 302 305 306 307 308 309 310 312
Height
5869 5869 5868 5866 5865 5864 5862 5861 5859 5857 5855 5854 5852 5851 5850 5849 5848 5847 5846 5845 5844 5843 5843 5842 5842 5842 5842 5842 5842 5842 5841 5842 5841 5842 5842 5842 5842 5842 5842 5841 5841 5840 5840 5840
5867 5866 5865 5864 5863 5862 5860 5859 5858 5856 5855 5853 5852 5851 5850 5848 5847 5847 5846 5845 5844 5843 5843 5843 5842 5842 5842 5842 5842 5841 5841 5841 5840 5840 5840 5840 5840 5839 5839 5838 5837 5837 5836 5836
5863 5864 5863 5862 5861 5860 5859 5858 5856 5855 5854 5853 5852 5851 5849 5848 5847 5847 5846 5845 5844 5843 5843 5842 5842 5841 5841 5841 5841 5840 5840 5839 5839 5839 5838 5838 5838 5837 5836 5835 5834 5834 5833 5832
5860 5860 5860 5860 5859 5858 5857 5857 5855 5854 5853 5852 5852 5851 5850 5848 5847 5846 5845 5845 5844 5843 5843 5842 5842 5841 5841 5840 5840 5839 5839 5838 5837 5837 5837 5836 5835 5834 5833 5832 5831 5830 5829 5828
5857 5858 5858 5857 5857 5857 5856 5855 5854 5853 5853 5852 5851 5850 5850 5848 5847 5846 5845 5845 5844 5843 5843 5842 5842 5841 5841 5840 5839 5838 5838 5837 5837 5836 5835 5834 5833 5832 5831 5830 5829 5828 5826 5825
5854 5855 5855 5855 5855 5855 5855 5854 5854 5853 5852 5852 5850 5849 5849 5848 5847 5846 5846 5845 5844 5844 5843 5842 5842 5841 5840 5840 5839 5838 5837 5836 5836 5835 5834 5833 5832 5830 5829 5828 5826 5825 5823 5822
5851 5852 5852 5853 5853 5853 5853 5854 5853 5852 5851 5851 5849 5848 5848 5847 5846 5846 5845 5845 5844 5844 5843 5842 5842 5841 5840 5839 5838 5838 5837 5836 5835 5834 5832 5831 5830 5828 5827 5825 5824 5822 5821 5819
5848 5850 5850 5850 5851 5851 5851 5852 5852 5851 5850 5850 5849 5847 5848 5846 5846 5845 5845 5845 5844 5844 5843 5842 5842 5841 5840 5839 5838 5837 5836 5835 5834 5832 5831 5829 5828 5827 5825 5823 5822 5820 5818 5816
5845 5847 5847 5848 5849 5849 5849 5849 5850 5849 5849 5849 5848 5848 5847 5846 5845 5845 5845 5844 5844 5843 5842 5842 5841 5840 5839 5839 5838 5837 5835 5834 5833 5831 5830 5828 5826 5825 5823 5821 5820 5818 5816 5814
5841 5843 5844 5845 5846 5847 5847 5848 5848 5847 5847 5847 5847 5846 5847 5846 5845 5845 5844 5843 5843 5842 5841 5841 5840 5840 5839 5838 5837 5836 5834 5833 5832 5830 5828 5827 5825 5823 5822 5820 5818 5816 5814 5811
5837 5840 5841 5842 5843 5844 5845 5845 5845 5845 5845 5845 5845 5847 5845 5845 5844 5843 5843 5842 5841 5841 5840 5840 5839 5839 5838 5837 5836 5835 5833 5832 5830 5829 5827 5825 5824 5822 5820 5818 5816 5814 5812 5809
5834 5836 5837 5839 5840 5841 5841 5842 5842 5843 5843 5843 5843 5846 5843 5843 5842 5842 5842 5841 5840 5840 5839 5838 5838 5837 5836 5836 5835 5833 5832 5831 5829 5827 5825 5824 5822 5821 5819 5817 5814 5812 5809 5807
5829 5832 5834 5836 5838 5838 5838 5839 5839 5840 5840 5840 5840 5843 5841 5840 5840 5840 5840 5839 5839 5838 5837 5837 5836 5836 5835 5834 5833 5832 5830 5829 5827 5826 5824 5822 5821 5819 5817 5815 5812 5810 5807 5804
5825 5827 5830 5832 5833 5833 5834 5835 5836 5837 5837 5837 5838 5838 5838 5838 5837 5837 5837 5837 5836 5836 5836 5835 5834 5834 5833 5832 5831 5830 5829 5827 5826 5824 5822 5821 5819 5817 5815 5813 5810 5808 5805 5802
5820 5822 5824 5826 5828 5829 5830 5831 5832 5833 5833 5834 5835 5835 5835 5835 5835 5834 5834 5834 5834 5834 5833 5833 5832 5831 5831 5830 5829 5828 5827 5825 5824 5822 5821 5819 5817 5815 5813 5810 5808 5805 5802 5799
5816 5818 5820 5822 5823 5824 5825 5827 5828 5828 5829 5830 5831 5832 5832 5831 5831 5831 5831 5831 5831 5831 5830 5830 5829 5829 5828 5827 5827 5826 5824 5823 5822 5820 5818 5817 5815 5812 5810 5807 5805 5802 5798 5795
5811 5813 5815 5817 5818 5819 5821 5823 5823 5824 5825 5826 5827 5829 5828 5828 5828 5828 5828 5828 5828 5827 5827 5827 5826 5826 5825 5825 5824 5823 5822 5821 5819 5817 5816 5814 5811 5809 5807 5804 5801 5798 5795 5791
5807 5809 5810 5812 5814 5814 5819 5818 5818 5819 5820 5822 5823 5824 5824 5825 5825 5825 5825 5824 5824 5824 5823 5823 5823 5822 5822 5821 5820 5820 5818 5817 5816 5814 5812 5810 5808 5806 5803 5800 5797 5794 5791 5787
5802 5804 5806 5807 5808 5810 5813 5813 5814 5815 5816 5818 5819 5820 5821 5821 5821 5821 5821 5821 5820 5820 5820 5819 5819 5819 5818 5817 5817 5816 5815 5813 5812 5810 5808 5806 5804 5802 5799 5796 5793 5790 5786 5783
5797 5799 5801 5802 5803 5805 5808 5808 5808 5811 5812 5814 5814 5815 5816 5816 5817 5818 5817 5817 5816 5816 5815 5815 5815 5815 5814 5813 5813 5812 5810 5809 5808 5806 5804 5802 5800 5797 5794 5791 5788 5785 5781 5778
5792 5794 5796 5797 5798 5800 5803 5803 5805 5807 5809 5809 5809 5810 5811 5812 5812 5813 5812 5812 5812 5812 5811 5811 5810 5810 5810 5809 5808 5807 5806 5804 5803 5801 5799 5797 5795 5792 5789 5786 5783 5780 5776 5772
5787 5789 5791 5792 5794 5798 5797 5798 5800 5802 5803 5803 5804 5805 5806 5806 5807 5807 5807 5807 5807 5807 5806 5806 5806 5805 5805 5804 5804 5802 5801 5799 5798 5796 5794 5792 5790 5787 5784 5781 5778 5774 5770 5767
5781 5784 5785 5788 5791 5792 5792 5793 5794 5795 5796 5797 5798 5799 5800 5801 5801 5801 5801 5802 5801 5801 5801 5801 5800 5800 5800 5799 5798 5797 5796 5794 5792 5790 5788 5786 5784 5781 5778 5775 5772 5768 5764 5761
5776 5777 5780 5782 5784 5785 5786 5787 5788 5789 5790 5792 5793 5793 5794 5794 5795 5795 5795 5795 5796 5795 5795 5795 5795 5795 5794 5793 5793 5791 5790 5788 5787 5784 5782 5780 5778 5775 5772 5769 5765 5762 5758 5754
5770 5772 5774 5776 5778 5780 5781 5781 5783 5784 5785 5785 5786 5787 5787 5788 5789 5790 5790 5790 5790 5790 5790 5789 5789 5789 5788 5787 5787 5785 5784 5782 5780 5778 5776 5773 5771 5768 5765 5762 5759 5755 5751 5747
5765 5766 5768 5770 5772 5773 5774 5775 5776 5777 5778 5779 5780 5781 5781 5782 5783 5783 5784 5784 5784 5784 5783 5783 5783 5782 5782 5781 5780 5779 5777 5776 5774 5771 5769 5767 5764 5761 5758 5755 5751 5747 5744 5740